{"data":{"norad_id":67209,"epoch":"2026-09-20T15:44:26.837088Z","epoch_age_seconds":64751,"freshness":"FRESH","line1":"1 67209U 25304T   26263.65586617  .00002675  00000+0  23187-3 0  9994","line2":"2 67209  70.0000  43.0789 0003481 263.0338  97.0425 14.98336386 43088","mean_motion":14.98336386,"eccentricity":0.0003481,"inclination_deg":70,"raan_deg":43.0789,"arg_perigee_deg":263.0338,"mean_anomaly_deg":97.0425,"bstar":0.00023187,"rev_number":4308,"period_min":96.106589511869,"perigee_km":569.61678756532,"apogee_km":574.45549810736,"semimajor_km":6950.1731428363,"source":"CELESTRAK","updated_at":"2026-09-21T09:00:36.138755Z"}}